Weather History for Palmer, AK

Change the Weather History Date:

Sunday, October 9, 2011

  Actual Average Record
Temperature  
Mean Temperature 36 °F -  
Max Temperature 46 °F 46 °F 64 °F (2006)
Min Temperature 26 °F 30 °F 12 °F (1965)
Degree Days  
Heating Degree Days 29    
Moisture  
Dew Point 28 °F    
Average Humidity 75    
Maximum Humidity 89    
Minimum Humidity 51    
Precipitation  
Precipitation 0.00 in - - ()
Sea Level Pressure  
Sea Level Pressure 29.56 in    
Wind  
Wind Speed 3 mph (NNE)    
Max Wind Speed 8 mph    
Max Gust Speed -    
Visibility 10 miles    
Events      
Averages and records for this station are not official NWS values.
T = Trace of Precipitation, MM = Missing Value Source: NWS Daily Summary

Daily Weather History Graph

Daily Weather History Graph

Search for Another Location

Airport:

Trip Planner

Search our weather history database for the weather conditions in past years. The results will help you decide how hot, cold, wet, or windy it might be!

Date:

Astronomy

Oct. 09, 2011 Rise Set
Actual Time 8:23 AM AKDT 7:02 PM AKDT
Civil Twilight 7:39 AM AKDT 7:46 PM AKDT
Nautical Twilight 6:49 AM AKDT 8:36 PM AKDT
Astronomical Twilight 5:56 AM AKDT 9:28 PM AKDT
Moon 5:57 PM AKDT (10/9) 5:54 AM AKDT (10/9)
Length of Visible Light 12h 06m
Length of Day
10h 38m
Waxing Gibbous, 95% of the Moon is Illuminated
Oct 9
Waxing Gibbous
Oct 11
Full
Oct 19
Last Quarter
Oct 26
New
Nov 2
First Quarter

Hourly Weather History & Observations

Time (AKDT) Temp. Windchill Dew Point Humidity Pressure Visibility Wind Dir Wind Speed Gust Speed Precip Events Conditions
12:53 AM 32.0 °F 28.7 °F 28.9 °F 88% 29.58 in 10.0 mi NNW 3.5 mph - N/A   Clear
1:53 AM 30.9 °F 27.5 °F 28.0 °F 89% 29.58 in 10.0 mi North 3.5 mph - N/A   Clear
2:53 AM 30.9 °F - 27.0 °F 85% 29.57 in 10.0 mi Calm Calm - N/A   Clear
3:53 AM 28.9 °F - 26.1 °F 89% 29.56 in 10.0 mi Calm Calm - N/A   Clear
4:53 AM 28.9 °F 25.2 °F 25.0 °F 85% 29.55 in 10.0 mi North 3.5 mph - N/A   Clear
5:53 AM 27.0 °F 23.0 °F 24.1 °F 89% 29.55 in 10.0 mi NNW 3.5 mph - N/A   Clear
6:53 AM 26.1 °F 21.9 °F 23.0 °F 88% 29.54 in 10.0 mi North 3.5 mph - N/A   Clear
7:53 AM 27.0 °F 21.6 °F 24.1 °F 89% 29.54 in 10.0 mi North 4.6 mph - N/A   Clear
8:53 AM 26.1 °F 19.4 °F 23.0 °F 88% 29.54 in 10.0 mi North 5.8 mph - N/A   Clear
9:53 AM 30.9 °F 26.2 °F 26.1 °F 82% 29.54 in 10.0 mi North 4.6 mph - N/A   Clear
10:53 AM 35.1 °F - 28.0 °F 76% 29.55 in 10.0 mi Calm Calm - N/A   Clear
11:53 AM 39.0 °F 35.7 °F 30.0 °F 70% 29.55 in 10.0 mi SE 4.6 mph - N/A   Clear
12:53 PM 42.1 °F 37.1 °F 30.0 °F 62% 29.55 in 10.0 mi South 8.1 mph - N/A   Clear
1:53 PM 43.0 °F 41.3 °F 30.9 °F 62% 29.55 in 10.0 mi South 3.5 mph - N/A   Clear
2:53 PM 45.0 °F 43.5 °F 30.0 °F 56% 29.55 in 10.0 mi South 3.5 mph - N/A   Clear
3:53 PM 46.0 °F - 28.9 °F 51% 29.55 in 10.0 mi Calm Calm - N/A   Clear
4:53 PM 46.9 °F - 30.9 °F 54% 29.55 in 10.0 mi South 3.5 mph - N/A   Clear
5:53 PM 45.0 °F - 30.9 °F 58% 29.55 in 10.0 mi Calm Calm - N/A   Clear
6:53 PM 41.0 °F - 30.9 °F 67% 29.56 in 10.0 mi Calm Calm - N/A   Mostly Cloudy
7:53 PM 37.9 °F - 30.9 °F 76% 29.57 in 10.0 mi Calm Calm - N/A   Overcast
8:53 PM 36.0 °F - 30.9 °F 82% 29.58 in 10.0 mi Calm Calm - N/A   Overcast
9:53 PM 39.0 °F - 32.0 °F 76% 29.59 in 10.0 mi Calm Calm - N/A   Overcast
10:53 PM 39.0 °F 36.8 °F 28.0 °F 65% 29.60 in 10.0 mi East 3.5 mph - N/A   Overcast
11:53 PM 37.0 °F 34.5 °F 26.1 °F 65% 29.60 in 10.0 mi East 3.5 mph - N/A   Partly Cloudy